Regional Weather Roundup
Issued by NWS

Home | Current Version | Previous Version | Graphics & Text | Print | Product List | Glossary On
Versions: 1 2 3 4 5 6 7 8 9 10 11 12 13 14 15 16 17 18 19 20 21 22 23 24 25 26 27 28 29 30 31 32 33 34 35 36 37 38 39 40 41 42 43 44 45 46 47 48 49 50
677
ASUS43 KIND 241600
RWRIN

WEATHER ROUNDUP FOR INDIANA
NATIONAL WEATHER SERVICE INDIANAPOLIS IN
1200 PM EDT THU MAY 24 2018

NOTE: "FAIR" INDICATES FEW OR NO CLOUDS BELOW 12,000 FEET WITH NO
SIGNIFICANT WEATHER AND/OR OBSTRUCTIONS TO VISIBILITY.

* - STATION DOES NOT REPORT WEATHER SUCH AS PRECIPITATION OR FOG.

+ - STATION NOT QUALITY CONTROLLED BY THE NATIONAL WEATHER SERVICE.
    USE DATA WITH CAUTION...ESPECIALLY DEWPOINT AND RELATIVE
    HUMIDITY OBSERVATIONS.

INZ001>003-010>013-019-020-241700-
NORTHWEST INDIANA

CITY           SKY/WX    TMP DP  RH WIND       PRES   REMARKS
GARY /AIRPORT/ MOSUNNY   81  50  34 S12       30.20F
MICHIGAN CITY+ FAIR      77  54  44 S3        30.21F
MONTICELLO +   FAIR      78  49  35 SE6       30.20F

$$

LMZ046-743>745-241700-
SOUTHERN LAKE MICHIGAN

STATION/POSITION TIME  TEMP    WIND        PRES    WAVE
                       AIR SEA DIR/SP/G            HT
                 (UTC) (F)     (DEG/KT/KT) (MB)    (FT)
BURNS HARBOR     1540   77     170/  6/ 18 1022.7F
MICHIGAN CITY    1530   75     160/ 10/ 15   N/A
5NW MICH CITY    1550   68 60  190/  4/  6   N/A     0

$$

INZ004-005-014>016-021>024-241700-
NORTH CENTRAL INDIANA

CITY           SKY/WX    TMP DP  RH WIND       PRES   REMARKS
ELKHART        FAIR      79  50  36 S6        30.22F
GOSHEN         FAIR      76  52  43 VRB7      30.22F
SOUTH BEND     FAIR      76  53  44 S8        30.22F
WARSAW +       FAIR      75  52  43 SE5       30.23F

$$

INZ006>009-017-018-025>027-241700-
NORTHEAST INDIANA

CITY           SKY/WX    TMP DP  RH WIND       PRES   REMARKS
ANGOLA *+      FAIR      75  50  41 S9        30.23F
FORT WAYNE     FAIR      77  50  38 S7        30.24F
KENDALLVILLE + FAIR     N/A N/A N/A SE3       30.24F

$$

INZ028-029-035-036-043>045-051>053-241700-
WEST CENTRAL INDIANA

CITY           SKY/WX    TMP DP  RH WIND       PRES   REMARKS
CRAWFORDSVL +  FAIR      75  54  48 E7        30.20F
GREENCASTLE +  FAIR      77  54  44 CALM      30.21F
LAFAYETTE      FAIR      78  52  40 E6        30.19F
TERRE HAUTE    FAIR      79  56  45 E12       30.19F

$$

INZ030>032-037>040-046>048-054>057-064-065-241700-
CENTRAL INDIANA

CITY           SKY/WX    TMP DP  RH WIND       PRES   REMARKS
COLUMBUS       SUNNY     75  50  41 E6        30.21F
INDIANAPOLIS   FAIR      77  54  44 E6        30.20F
-EAGLE CREEK   FAIR      77  55  46 E9        30.20F
KOKOMO +       FAIR      76  55  48 SE8       30.23F
MT COMFORT *+  FAIR      75  59  57 E9        30.22F
SHELBYVILLE    FAIR      78  51  38 E9        30.20F

$$

INZ033-034-041-042-049-050-058-059-241700-
EAST CENTRAL INDIANA

CITY           SKY/WX    TMP DP  RH WIND       PRES   REMARKS
MUNCIE         FAIR      79  49  34 VRB6      30.22F
RICHMOND +     FAIR      73  52  46 SE10      30.24S

$$

INZ060-061-067>069-081>083-085>088-241700-
SOUTHWEST INDIANA

CITY           SKY/WX    TMP DP  RH WIND       PRES   REMARKS
EVANSVILLE     FAIR      79  61  53 MISG      30.17F
HUNTINGBURG +  CLOUDY    78  60  53 VRB6      30.17F

$$

INZ062-063-066-070>080-084-089>092-241700-
SOUTH CENTRAL AND SOUTHEAST INDIANA

CITY           SKY/WX    TMP DP  RH WIND       PRES   REMARKS
BLOOMINGTON    FAIR      75  57  53 E7        30.20F
FRENCH LICK *+ FAIR      75  43  31 E8        30.19S
SEYMOUR +      FAIR      77  55  47 E6        30.20F

$$





USA.gov is the U.S. government's official web portal to all federal, state and local government web resources and services.